Regional Weather Roundup
Issued by NWS Charleston, SC

Current Version | Previous Version | Graphics & Text | Print | Product List | Glossary On
Versions: 1 2 3 4 5 6 7 8 9 10 11 12 13 14 15 16 17 18 19 20 21 22 23 24 25 26 27 28 29 30 31 32 33 34 35 36 37 38 39 40 41 42 43 44 45 46 47 48 49 50
000
ASUS42 KCHS 261810
RWRCHS
REGIONAL WEATHER ROUNDUP
NATIONAL WEATHER SERVICE CHARLESTON SC
200 PM EDT SAT JUL 26 2014

NOTE: "FAIR" INDICATES FEW OR NO CLOUDS BELOW 12,000 FEET WITH NO
SIGNIFICANT WEATHER AND/OR OBSTRUCTIONS TO VISIBILITY.

NOT ALL STATIONS ARE QUALITY CONTROLLED BY THE NATIONAL
WEATHER SERVICE. USE DATA WITH CAUTION...ESPECIALLY
DEWPOINT OBSERVATIONS.

SCZ027-030-031-034>040-042>050-261900-
...SOUTH CAROLINA...

CITY           SKY/WX    TMP DP  RH WIND       PRES   REMARKS
N CHARLESTON   MOSUNNY   91  74  57 VRB6      30.02F HX 100
6HR MIN TEMP:  78; 6HR MAX TEMP:  91;

WATERFRONT PRK   N/A     90 N/A N/A W5G10       N/A
FORT JOHNSON   NOT AVBL
MOUNT PLEASANT FAIR      90  77  66 NW5       30.02S HX 102
JOHNS ISLAND   PTCLDY    88  72  58 CALM      30.02S HX  94
PINOPOLIS        N/A     88  75  66 NE2       29.97R HX  97
MONCKS CORNER    N/A     90  79  70 SW5       30.02F HX 105
SUMMERVILLE    FAIR      88  77  70 CALM      30.03F HX 100
BEAUFORT MCAS  MOSUNNY   90  74  59 VRB6      30.01F HX  99
6HR MIN TEMP:  78; 6HR MAX TEMP:  91;

BEAUFORT ARPT  FAIR      90  75  62 SW7       30.01S HX 100
HILTON HEAD IS NOT AVBL
GEORGETOWN     NOT AVBL
WALTERBORO       N/A     88  70  55 W3        30.02F HX  92
ORANGEBURG     PTSUNNY   87  73  62 SW3       30.02F HX  94
6HR MIN TEMP:  73; 6HR MAX TEMP:  87;

BARNWELL       MOCLDY    91  73  55 W3        30.02F HX 100
AIKEN          FAIR      91  70  49 NW5       30.05F HX  97
MANNING        FAIR      88  77  70 SW3       30.02S HX 100
KINGSTREE      NOT AVBL
COLUMBIA       PTSUNNY   90  68  48 N5        30.00F HX  94
6HR MIN TEMP:  75; 6HR MAX TEMP:  93;

SUMTER         PTSUNNY   90  72  56 VRB2      30.00F HX  97
6HR MIN TEMP:  74; 6HR MAX TEMP:  90;

FLORENCE       CLOUDY    89  71  55 CALM      30.02S HX  95
6HR MIN TEMP:  72; 6HR MAX TEMP:  89;

MYRTLE BEACH   MOSUNNY   88  75  66 SE7       30.01F HX  97
N MYRTLE BEACH SUNNY     85  74  69 S7        30.01F HX  92
6HR MIN TEMP:  77; 6HR MAX TEMP:  86;


$$

GAZ063-065-086>088-099>101-113>116-118-119-134-136>141-150-261900-
...GEORGIA...

CITY           SKY/WX    TMP DP  RH WIND       PRES   REMARKS
SAVANNAH ARPT  PTSUNNY   92  72  51 VRB5      30.02F HX  99
6HR MIN TEMP:  78; 6HR MAX TEMP:  93;

HUNTER AAF     MOSUNNY   91  75  59 W6        30.00F HX 102
6HR MIN TEMP:  78; 6HR MAX TEMP:  91;

FORT STEWART   MOSUNNY   92  73  53 W6        30.01F HX 101
6HR MIN TEMP:  77; 6HR MAX TEMP:  92;

STATESBORO     NOT AVBL
SYLVANIA       MOCLDY    89  78  70 W6        30.03F HX 104
CLAXTON        FAIR      90  77  66 CALM      30.02F HX 102
THOMSON        SUNNY     92  69  47 W3        30.08S HX  96
AUGUSTA-BUSH   MOSUNNY   92  67  43 W8        30.01F HX  95
6HR MIN TEMP:  72; 6HR MAX TEMP:  93;

AUGUSTA-DANIEL SUNNY     92  67  43 NW7       30.03F HX  95
SWAINSBORO     FAIR      93  73  52 NW7       30.03F HX 102
VIDALIA          N/A     90  73  58 CALM      30.04S HX  98
ALMA           MOSUNNY   92  72  51 W6        30.03F HX  99
6HR MIN TEMP:  76; 6HR MAX TEMP:  94;

WAYCROSS       PTSUNNY   94  77  57 NW9       30.03F HX 108
JESUP          NOT AVBL
BRUNSWICK      MOSUNNY   88  72  58 W9        30.05S HX  94
SAINT SIMONS   PTSUNNY   85  75  72 W6        30.04F HX  93
6HR MIN TEMP:  78; 6HR MAX TEMP:  88; 6HR PCP:  0.07;


$$

SCZ027-028-034-036>038-045-046-048>050-GAZ119-141-261900-
...LAKE AND SUPPLEMENTAL COASTAL OBSERVATIONS...

STATION/POSITION TIME  TEMP    WIND        PRES    WAVE   SWELL
                       AIR SEA DIR/SP/G            HT/PER HT/PER/DIR
                 (UTC) (F)     (DEG/KT/KT) (MB)    (FT/S) (FT/S/D)
UPR LAKE MARION  NOT AVBL
WINYAH BAY       1700   85     310/  3     1016.0S
LAKE MURRAY      1700   92     170/  1/  2 1015.6F
ACE BASIN NERRS  1700   88     250/  1     1017.0S
FORT PULASKI     1800   88     210/  4/  6 1016.8S
SAPELO ISLAND    1700   88     240/ 10     1018.0S

$$

ANZ835-935-AMZ111-154-330-350-352-354-374-450-454-472-261900-
...C-MAN AND BUOY OBSERVATIONS...

STATION/POSITION TIME  TEMP    WIND        PRES    WAVE   SWELL
                       AIR SEA DIR/SP/G            HT/PER HT/PER/DIR
                 (UTC) (F)     (DEG/KT/KT) (MB)    (FT/S) (FT/S/D)
FOLLY BEACH CMAN 1700   84     200/ 10/ 11 1017.3F
BUOY 41004       1800   83 84  240/  8/ 10 1016.5F   3/ 5   3/ 5
BUOY 41008       1800   84 85  210/ 10/ 14 1017.4F   2/ 8   2/120/ 8
5E ST. MARYS GA  1800      85                N/A     2/ 8
FRYING PAN BUOY  NOT AVBL
BUOY 41025       1800          VRB  8/ 10  1016.2F   2/ 7   2/130/ 7
CAPE LOOKOUT NC  1700   81      70/  7/  8 1016.3S
BUOY 41002       1750   78 82  270/ 10/ 14 1019.5F   4/ 7   3/250/ 7
BUOY 41010       1800   84 85  210/  8/ 10 1019.7F   3/ 8   2/130/ 8
BUOY 41012       NOT AVBL
ST AUGUSTINE FL  1800   90     240/  6/  8 1018.5F
CAPERS NEARSHORE 1700   87     140/  2/  4   N/A
FRIPP NEARSHORE  NOT AVBL


$$


USA.gov is the U.S. government's official web portal to all federal, state and local government web resources and services.